McComb, MS

10:20 PM CST on February 25, 2018 (GMT -0600)
McComb-Pike County-Lewis

Weather History for KMCB - September, 2011

Change the Weather History Date:

Saturday, September 24, 2011

  Actual Average Record
Temperature  
Mean Temperature 72 °F -  
Max Temperature 82 °F 85 °F 96 °F (1993)
Min Temperature 63 °F 62 °F 45 °F (1990)
Cooling Degree Days 8    
Growing Degree Days 22 (Base 50)    
Moisture  
Dew Point 62 °F    
Average Humidity 75    
Maximum Humidity 93    
Minimum Humidity 47    
Precipitation  
Precipitation 0.00 in - - ()
Sea Level Pressure  
Sea Level Pressure 29.95 in    
Wind  
Wind Speed 2 mph (NNW)    
Max Wind Speed 7 mph    
Max Gust Speed -    
Visibility 10 miles    
Events      
Averages and records for this station are not official NWS values.
T = Trace of Precipitation, MM = Missing Value Source: NWS Daily Summary

Daily Weather History Graph

Daily Weather History Graph

Search for Another Location

Airport or City:

Trip Planner

Search our weather history database for the weather conditions in past years. The results will help you decide how hot, cold, wet, or windy it might be!

Date:

Astronomy

Sep. 24, 2011 Rise Set
Actual Time 6:51 AM CDT 6:56 PM CDT
Civil Twilight 6:27 AM CDT 7:20 PM CDT
Nautical Twilight 5:58 AM CDT 7:48 PM CDT
Astronomical Twilight 5:30 AM CDT 8:16 PM CDT
Moon 3:38 AM CDT (9/24) 4:54 PM CDT (9/24)
Length of Visible Light 12h 53m
Length of Day
12h 05m
Waning Crescent, 11% of the Moon is Illuminated
Sep 24
Waning Crescent
Sep 27
New
Oct 3
First Quarter
Oct 11
Full
Oct 19
Last Quarter

Hourly Weather History & Observations

Time (CDT) Temp. Heat Index Dew Point Humidity Pressure Visibility Wind Dir Wind Speed Gust Speed Precip Events Conditions
12:53 AM 68.0 °F - 64.0 °F 87% 30.00 in 10.0 mi NE 4.6 mph - N/A   Clear
1:53 AM 66.0 °F - 63.0 °F 90% 29.99 in 10.0 mi Calm Calm - N/A   Clear
2:53 AM 66.0 °F - 62.1 °F 87% 29.98 in 10.0 mi Calm Calm - N/A   Clear
3:53 AM 64.9 °F - 62.1 °F 90% 29.97 in 10.0 mi Calm Calm - N/A   Scattered Clouds
4:53 AM 64.9 °F - 62.1 °F 90% 29.98 in 10.0 mi Variable 3.5 mph - N/A   Mostly Cloudy
5:53 AM 64.0 °F - 61.0 °F 90% 29.98 in 10.0 mi Calm Calm - N/A   Partly Cloudy
6:53 AM 63.0 °F - 61.0 °F 93% 29.98 in 10.0 mi Calm Calm - N/A   Clear
7:53 AM 64.9 °F - 61.0 °F 87% 29.99 in 10.0 mi Calm Calm - N/A   Clear
8:53 AM 68.0 °F - 61.0 °F 78% 30.01 in 10.0 mi ENE 4.6 mph - N/A   Clear
9:53 AM 72.0 °F - 63.0 °F 73% 30.01 in 10.0 mi Variable 3.5 mph - N/A   Clear
10:53 AM 75.9 °F - 63.0 °F 64% 30.01 in 10.0 mi Calm Calm - N/A   Clear
11:53 AM 78.1 °F - 63.0 °F 60% 29.99 in 10.0 mi West 5.8 mph - N/A   Partly Cloudy
12:53 PM 80.1 °F 81.2 °F 62.1 °F 54% 29.96 in 10.0 mi Variable 6.9 mph - N/A   Partly Cloudy
1:53 PM 82.0 °F 82.4 °F 60.1 °F 47% 29.94 in 10.0 mi WNW 5.8 mph - N/A   Partly Cloudy
2:53 PM 82.0 °F 82.7 °F 61.0 °F 49% 29.92 in 10.0 mi Calm Calm - N/A   Partly Cloudy
3:53 PM 80.1 °F 80.9 °F 60.1 °F 50% 29.90 in 10.0 mi Calm Calm - N/A   Clear
4:53 PM 82.0 °F 82.7 °F 61.0 °F 49% 29.89 in 10.0 mi Calm Calm - N/A   Partly Cloudy
5:53 PM 80.1 °F 81.2 °F 62.1 °F 54% 29.88 in 10.0 mi Calm Calm - N/A   Clear
6:53 PM 75.0 °F - 66.0 °F 73% 29.90 in 10.0 mi Calm Calm - N/A   Clear
7:53 PM 71.1 °F - 66.0 °F 84% 29.90 in 10.0 mi Calm Calm - N/A   Clear
8:53 PM 68.0 °F - 64.9 °F 90% 29.91 in 10.0 mi Calm Calm - N/A   Clear
9:53 PM 66.0 °F - 63.0 °F 90% 29.92 in 10.0 mi Calm Calm - N/A   Clear
10:53 PM 66.0 °F - 63.0 °F 90% 29.92 in 9.0 mi Calm Calm - N/A   Clear
11:53 PM 64.9 °F - 63.0 °F 93% 29.91 in 8.0 mi Calm Calm - N/A   Partly Cloudy